Simultaneous Nadir Overpasses (SNOs) Predictions

Prediction of SNOs over PacNW region [( 10.00, 139.50) to ( 22.70, 165.60)] between NOAA-19 and NPP Satellites:

Table of predicted SNOs over PacNW region for the next 30.0 days since TLE Epoch: 11/24/2012
Index Date (NOAA-19) Time (NOAA-19) NOAA-19 Lat,Lon Date (NPP) Time (NPP) NPP Lat,Lon Distance(km) Time Diff (sec)
1 11/27/2012 15:38:59 22.59, 152.54 11/27/2012 15:40:44 23.30, 149.35 336.45 105
2 11/28/2012 02:55:26 22.70, 156.00 11/28/2012 02:53:28 22.26, 153.81 230.06 118
3 12/09/2012 15:10:42 22.62, 159.66 12/09/2012 15:14:18 26.89, 156.63 564.80 216
4 12/10/2012 02:26:18 19.75, 163.85 12/10/2012 02:27:08 19.09, 160.95 313.24 50
5 12/10/2012 04:06:43 13.94, 139.73 12/10/2012 04:06:59 13.29, 136.95 309.80 16
6 12/10/2012 15:03:19 10.39, 159.43 12/10/2012 14:59:49 10.82, 157.48 218.50 210
7 12/22/2012
